Time[GMT],current_u[cm/s](10m),current_v[cm/s](10m),current_u[cm/s](14m),current_v[cm/s](14m),current_u[cm/s](18m),current_v[cm/s](18m),current_u[cm/s](22m),current_v[cm/s](22m),current_u[cm/s](26m),current_v[cm/s](26m),current_u[cm/s](30m),current_v[cm/s](30m),current_u[cm/s](34m),current_v[cm/s](34m),current_u[cm/s](38m),current_v[cm/s](38m),current_u[cm/s](42m),current_v[cm/s](42m),current_u[cm/s](46m),current_v[cm/s](46m),current_u[cm/s](50m),current_v[cm/s](50m),current_u[cm/s](54m),current_v[cm/s](54m),current_u[cm/s](58m),current_v[cm/s](58m)
2018-07-10 20:00,6.19,-19.03,5.87,-19.75,0.41,-23.91,-4.42,-19.06,-5.86,-15.10,-4.92,-11.50,-4.24,-9.54,-7.60,-7.59,-11.00,-4.09,-10.56,-1.99,-9.75,-1.55,-7.84,-0.58,-7.69,-0.02
2018-07-10 21:00,-17.88,-21.46,-6.06,-22.75,-13.43,-23.20,-15.42,-15.87,-17.63,-10.36,-15.87,-8.50,-14.40,-6.73,-16.15,-6.09,-15.31,-2.10,-12.73,0.51,-11.10,0.98,-10.63,1.53,-10.36,1.30
2018-07-10 22:00,-5.31,-9.43,-14.30,-29.59,-21.43,-24.66,-22.87,-19.66,-21.58,-16.17,-20.66,-13.21,-19.84,-8.81,-16.89,-8.59,-14.40,-7.46,-11.73,-4.82,-11.73,-5.55,-11.42,-5.15,-10.57,-3.76
2018-07-10 23:00,-5.65,-19.10,-24.84,-22.21,-25.52,-12.94,-26.38,-9.96,-28.89,-10.99,-29.98,-10.47,-27.68,-9.39,-23.98,-4.17,-20.18,-2.56,-18.62,-1.80,-18.09,-2.59,-16.47,-2.43,-14.09,-1.65
2018-07-11 00:00,-14.33,-22.21,-21.56,-21.68,-23.42,-14.83,-25.21,-12.95,-25.83,-11.15,-26.54,-10.11,-24.65,-9.46,-22.04,-7.67,-18.28,-6.28,-18.06,-7.05,-19.14,-7.99,-17.05,-6.55,-13.43,-5.41
2018-07-11 01:00,-10.83,-18.81,-17.39,-17.37,-18.14,-15.81,-19.27,-15.51,-16.94,-13.49,-17.85,-10.32,-16.91,-11.40,-15.27,-14.57,-14.50,-16.54,-15.92,-15.59,-13.42,-16.33,-10.66,-16.89,-9.05,-13.42
2018-07-11 02:00,-13.71,-17.14,-15.85,-12.56,-13.70,-8.82,-11.31,-9.90,-8.08,-9.91,-7.85,-9.64,-8.09,-10.23,-8.49,-10.65,-9.48,-12.29,-10.54,-12.59,-8.91,-9.21,-5.86,-9.69,-5.22,-9.72
2018-07-11 03:00,-0.97,-8.60,-2.88,-8.84,-0.93,-4.01,1.60,-5.58,3.88,-4.82,2.02,-3.79,0.25,-5.96,-1.61,-6.70,-2.04,-3.39,-3.68,-3.14,-5.11,-3.23,-3.21,-2.59,-2.30,-4.30
2018-07-11 04:00,-0.75,-3.54,3.47,-6.29,5.76,-3.76,4.89,-3.28,8.42,-4.35,10.18,-2.49,5.95,-2.98,5.90,-2.78,4.12,-1.31,2.24,1.27,2.36,1.20,2.62,0.65,2.43,0.59
2018-07-11 05:00,4.85,-2.04,-0.93,-1.10,5.57,-5.27,6.17,-3.02,6.89,-4.79,9.80,-7.70,12.68,-6.87,9.29,-6.28,5.14,-7.06,6.53,-5.72,4.98,-4.29,5.35,-3.77,6.85,-5.01
2018-07-11 06:00,1.48,5.00,7.56,-1.68,8.24,-1.17,8.92,-1.71,12.51,-1.20,11.23,3.64,7.76,3.78,6.44,1.85,7.63,2.40,8.07,5.23,9.20,7.11,8.19,8.80,7.90,7.99
2018-07-11 07:00,12.92,-8.78,8.65,6.85,11.15,1.01,11.73,-0.28,13.35,-0.85,15.15,0.50,14.02,2.98,12.70,4.68,13.04,5.30,13.49,8.45,13.42,9.78,12.53,8.17,12.22,7.46
2018-07-11 08:00,-5.63,-17.74,0.88,-2.35,1.99,-9.83,2.94,-9.87,4.54,-10.76,5.71,-11.57,6.97,-10.17,7.00,-7.36,4.28,-4.39,2.27,-4.65,1.83,-3.12,2.85,-2.30,4.24,0.07
2018-07-11 09:00,-8.13,-2.12,-2.61,-1.06,-3.71,-9.18,-6.22,-13.12,-1.94,-15.02,-0.45,-16.57,0.28,-15.84,-1.49,-11.14,-4.17,-7.23,-4.61,-6.42,-5.04,-4.57,-4.45,-3.36,-4.67,-1.13
2018-07-11 10:00,-3.71,-3.04,-9.94,-8.88,-20.90,-8.39,-20.94,-11.52,-15.33,-15.11,-7.74,-18.35,-7.56,-18.61,-8.72,-13.84,-9.73,-9.97,-10.09,-7.99,-10.26,-5.23,-10.63,-3.57,-7.90,0.34
2018-07-11 11:00,-11.12,-23.99,-9.37,-8.31,-16.51,-11.71,-16.47,-15.13,-10.75,-23.47,-8.66,-24.22,-9.03,-20.38,-10.01,-17.33,-9.26,-15.24,-8.18,-12.12,-7.42,-9.31,-7.48,-5.47,-6.01,-1.52
2018-07-11 12:00,0.21,-8.37,-9.11,-13.22,-17.99,-13.79,-21.37,-18.72,-21.65,-25.35,-19.31,-31.34,-15.56,-32.45,-15.86,-29.20,-15.49,-22.54,-12.69,-19.24,-11.08,-18.68,-10.02,-17.65,-9.66,-14.21
2018-07-11 13:00,-5.28,-9.52,-2.50,-12.68,-8.76,-14.79,-10.46,-18.29,-10.98,-21.56,-15.13,-25.25,-15.55,-27.76,-14.96,-25.10,-13.52,-20.31,-11.16,-19.12,-9.56,-18.55,-7.87,-16.82,-6.19,-15.40
2018-07-11 14:00,16.23,-3.25,9.14,-10.49,0.33,-11.66,-4.22,-13.59,-5.96,-14.40,-6.95,-15.31,-11.89,-15.48,-17.11,-15.41,-17.32,-15.06,-14.02,-14.22,-11.81,-14.31,-10.08,-14.54,-6.86,-13.10
2018-07-11 15:00,15.90,-21.34,8.26,-18.65,-0.27,-19.74,-2.22,-18.74,-0.81,-16.77,-5.05,-15.39,-8.41,-13.13,-10.36,-12.13,-10.26,-10.64,-9.99,-10.87,-9.30,-13.28,-8.09,-14.60,-6.25,-14.48
2018-07-11 16:00,27.35,-1.42,17.35,-14.79,10.37,-12.22,6.88,-9.47,6.99,-9.86,9.73,-10.00,7.76,-3.50,2.83,1.02,0.45,1.69,1.84,3.02,4.27,4.34,3.99,3.12,4.94,2.35
2018-07-11 17:00,6.48,-27.69,4.57,-25.01,5.62,-18.88,3.76,-11.30,3.87,-14.60,4.92,-13.15,2.71,-8.38,0.87,-4.85,-0.85,-4.30,-0.85,-2.84,0.47,-2.36,0.65,-0.44,1.61,-0.16
2018-07-11 18:00,16.82,-24.20,4.26,-21.04,3.34,-14.54,8.29,-6.78,8.88,-6.30,8.47,-7.77,9.32,-4.19,8.68,0.93,10.85,4.98,13.67,8.19,15.27,9.89,12.05,8.03,10.64,6.80
2018-07-11 19:00,5.78,-13.63,2.64,-16.82,4.41,-10.28,12.26,-4.29,13.21,-5.06,11.34,-7.26,11.87,-3.67,14.90,-0.10,17.66,3.71,19.62,6.67,20.67,5.93,20.49,6.19,17.83,3.86
2018-07-11 20:00,-11.35,-20.63,-9.27,-18.47,-1.10,-14.67,5.26,-11.81,2.92,-12.37,2.80,-8.66,6.46,-5.12,9.53,-2.05,11.90,-0.13,12.36,-1.03,10.37,-2.44,8.59,-4.92,7.14,-6.38
2018-07-11 21:00,-19.58,-12.27,-21.60,-21.90,-15.31,-19.16,-6.92,-17.59,-1.96,-17.10,-0.90,-16.80,0.66,-13.54,4.25,-8.66,8.52,-8.69,10.28,-9.74,8.21,-9.40,6.46,-8.76,7.37,-8.29
2018-07-11 22:00,-39.22,-23.21,-37.37,-15.50,-32.05,-14.49,-27.95,-15.71,-21.96,-15.56,-17.90,-15.95,-13.40,-16.02,-9.65,-10.98,-4.82,-10.75,-2.21,-11.14,-5.59,-10.97,-8.56,-9.32,-6.64,-8.77
2018-07-11 23:00,-31.52,-4.36,-27.70,-9.71,-25.24,-10.67,-25.12,-13.24,-25.93,-15.86,-20.85,-17.63,-14.09,-18.71,-8.50,-20.43,-6.59,-18.01,-3.60,-15.39,-0.38,-14.99,0.66,-15.73,-1.22,-13.15
2018-07-12 00:00,-27.35,-12.73,-26.10,-14.56,-27.66,-15.63,-29.32,-16.00,-29.50,-18.65,-23.58,-22.26,-18.75,-24.21,-13.78,-25.59,-11.31,-24.05,-12.36,-19.67,-12.65,-15.38,-12.60,-14.12,-13.90,-14.29
2018-07-12 01:00,-25.43,-14.36,-20.44,-13.25,-17.62,-14.73,-19.58,-10.82,-19.99,-7.19,-20.00,-8.96,-17.65,-12.45,-14.68,-14.09,-8.91,-14.62,-4.25,-11.31,-1.79,-10.08,-3.25,-7.90,-4.72,-6.03
2018-07-12 02:00,-16.81,-1.60,-20.63,-25.99,-23.10,-23.58,-17.57,-16.38,-11.39,-13.25,-14.08,-14.02,-15.92,-16.32,-16.95,-17.45,-14.52,-15.40,-13.91,-16.78,-12.14,-17.53,-8.79,-16.15,-6.72,-14.31
2018-07-12 03:00,-8.06,-15.42,-11.01,-17.83,-14.40,-23.06,-15.87,-24.11,-14.31,-17.21,-7.03,-12.84,-2.42,-12.97,-7.53,-14.75,-10.48,-14.24,-9.89,-12.30,-8.89,-9.62,-8.44,-9.39,-7.56,-11.01
2018-07-12 04:00,6.61,-8.19,-0.92,-16.39,-4.54,-18.26,-8.92,-21.49,-9.19,-17.30,-4.95,-12.86,2.72,-12.02,2.41,-11.69,-1.35,-12.35,-2.22,-10.41,-3.77,-8.99,-1.15,-7.61,-0.35,-6.76
2018-07-12 05:00,6.94,-16.94,7.57,-14.06,3.85,-15.23,-4.92,-15.87,-4.36,-11.65,-2.18,-7.28,2.04,-7.11,3.50,-8.57,1.37,-7.31,-0.61,-4.75,-2.76,-4.54,-2.33,-3.48,-2.72,-3.59
2018-07-12 06:00,16.95,-10.85,10.14,-12.49,6.30,-11.09,3.62,-9.36,4.30,-3.76,7.13,-0.56,9.96,-3.18,11.53,-3.56,11.20,-0.22,9.78,2.18,8.57,3.50,7.44,5.98,7.55,6.33
2018-07-12 07:00,18.34,-6.29,9.88,-7.26,7.11,-6.28,7.27,-1.77,9.96,0.46,12.86,-2.03,15.36,0.87,15.18,3.31,14.28,5.34,11.44,6.19,11.92,4.87,12.44,3.78,11.40,3.79
2018-07-12 08:00,-0.49,-7.73,0.69,-4.59,0.76,-3.74,-0.93,-1.83,1.04,2.17,5.50,-1.75,11.90,-0.85,13.46,0.95,12.83,4.61,11.45,7.96,11.31,9.17,10.64,7.52,6.99,6.48
2018-07-12 09:00,-3.83,-12.75,-3.62,-8.42,-5.36,-11.42,-5.27,-9.94,-1.53,-8.45,3.85,-7.63,5.99,-5.67,7.02,-2.36,7.07,1.09,7.13,2.36,7.21,0.61,4.82,-1.22,2.21,0.63
2018-07-12 10:00,-15.77,-10.66,-15.58,-11.33,-17.34,-13.92,-17.03,-14.25,-15.33,-15.11,-10.67,-14.30,-6.32,-10.97,-4.77,-8.03,-3.39,-5.24,-4.35,-4.78,-6.35,-5.78,-7.12,-5.27,-7.57,-3.00
2018-07-12 11:00,-11.56,-11.22,-15.41,-15.55,-18.86,-16.95,-18.40,-15.99,-18.32,-14.82,-17.68,-15.99,-12.58,-13.07,-6.57,-10.83,-2.82,-8.30,-2.62,-5.02,-3.58,-6.02,-3.83,-3.70,-4.34,-0.10
2018-07-12 12:00,-14.70,-9.31,-17.32,-18.70,-20.51,-16.28,-21.32,-16.72,-20.96,-17.24,-21.32,-15.27,-17.25,-13.48,-14.12,-11.33,-11.14,-9.75,-7.78,-7.33,-6.85,-4.77,-6.00,-2.66,-6.04,0.76
2018-07-12 13:00,-22.25,-20.74,-21.38,-24.86,-24.26,-30.78,-25.25,-30.23,-23.66,-26.34,-24.98,-23.91,-24.21,-25.15,-21.35,-22.77,-17.71,-23.49,-16.31,-21.11,-15.08,-18.16,-12.85,-17.21,-12.58,-14.53
2018-07-12 14:00,-7.59,-17.78,-12.57,-24.72,-13.11,-26.85,-15.06,-24.40,-15.72,-20.63,-17.22,-18.67,-15.79,-19.30,-16.56,-19.52,-14.14,-18.52,-13.13,-15.52,-10.18,-13.84,-8.33,-11.96,-8.29,-9.55
2018-07-12 15:00,-0.27,-18.28,-2.40,-23.57,-8.09,-28.74,-10.94,-26.44,-9.53,-20.83,-8.72,-18.21,-10.45,-16.52,-11.10,-13.90,-10.91,-13.84,-10.36,-13.58,-8.71,-13.52,-4.82,-12.93,-1.40,-10.70
2018-07-12 16:00,5.18,-12.98,5.61,-23.57,1.94,-27.43,2.78,-20.94,5.03,-14.99,3.71,-11.84,1.20,-8.19,0.39,-4.99,-1.29,-4.22,-1.45,-5.10,-2.26,-6.27,0.62,-6.17,4.39,-4.78
2018-07-12 17:00,2.90,-18.10,5.16,-26.71,1.47,-27.25,2.13,-19.78,3.89,-14.28,4.82,-10.27,5.20,-7.25,4.78,-4.35,4.63,-4.19,4.17,-4.73,5.35,-5.96,9.07,-6.97,11.89,-4.81
2018-07-12 18:00,6.47,-30.19,14.89,-26.52,11.37,-25.14,14.51,-21.95,15.54,-16.45,16.60,-10.74,18.33,-9.52,17.38,-5.83,16.58,-4.50,15.40,-4.01,16.87,-5.15,18.63,-5.48,21.16,-3.40
2018-07-12 19:00,2.62,-13.50,12.23,-20.52,5.55,-13.18,8.09,-10.06,13.67,-6.69,14.77,-2.53,16.76,1.06,17.68,1.12,19.30,3.45,18.76,5.69,17.76,4.47,18.80,3.73,18.43,5.39
2018-07-12 20:00,-0.38,-23.72,8.55,-20.02,5.73,-12.71,8.09,-8.60,12.44,-7.46,15.55,-5.63,18.34,-4.83,18.78,-3.46,18.18,-2.80,19.19,0.20,20.22,1.32,19.54,3.32,14.17,5.73
2018-07-12 21:00,-1.94,-20.43,-2.33,-22.72,-3.35,-16.98,-2.17,-14.56,2.29,-14.53,5.73,-14.17,8.03,-12.78,9.87,-11.21,12.28,-9.80,14.91,-8.83,16.02,-7.26,13.10,-5.40,8.97,-2.63
2018-07-12 22:00,-4.66,-26.20,-12.60,-26.81,-10.21,-25.71,-8.92,-20.76,-3.64,-18.52,1.00,-16.56,1.40,-14.68,2.51,-12.39,3.57,-9.90,6.18,-9.57,6.52,-8.22,5.13,-5.19,2.76,-0.56
2018-07-12 23:00,-14.96,-16.77,-17.58,-21.79,-26.70,-18.27,-29.43,-19.26,-20.47,-22.20,-9.77,-21.42,-6.09,-21.20,-5.09,-19.25,-4.74,-14.67,-0.78,-13.23,1.15,-11.63,0.98,-8.87,-1.79,-7.90
2018-07-13 00:00,-19.33,-8.04,-30.49,-16.65,-31.44,-15.15,-29.35,-19.55,-22.61,-23.44,-15.98,-24.45,-12.33,-24.86,-13.93,-22.51,-14.19,-17.28,-11.00,-12.41,-6.17,-11.13,-6.89,-7.90,-7.72,-4.29
2018-07-13 01:00,-21.59,-13.58,-35.57,-17.07,-33.20,-12.64,-29.04,-15.19,-26.12,-18.10,-23.42,-19.20,-23.39,-21.48,-24.20,-20.46,-22.43,-15.38,-19.12,-12.04,-14.73,-7.76,-13.45,-6.77,-11.56,-5.40
2018-07-13 02:00,-25.45,-29.14,-29.05,-21.33,-23.83,-17.76,-23.42,-14.10,-26.13,-14.46,-25.74,-16.54,-23.87,-17.98,-21.62,-17.85,-21.54,-13.77,-20.47,-13.88,-20.14,-13.58,-16.49,-11.80,-14.22,-9.18
2018-07-13 03:00,-19.72,-21.57,-20.20,-20.98,-17.67,-21.09,-16.62,-17.14,-15.76,-12.53,-15.50,-5.80,-19.31,-3.77,-21.71,-4.46,-20.34,-4.90,-18.79,-5.59,-17.51,-5.33,-16.88,-6.09,-14.03,-6.94
2018-07-13 04:00,-9.42,-19.76,-11.28,-25.60,-7.55,-21.20,-8.41,-13.13,-6.51,-11.02,-4.10,-2.74,-6.50,0.53,-8.56,1.19,-7.54,-0.19,-6.73,-2.66,-6.45,-2.16,-6.63,-4.81,-5.82,-8.74
2018-07-13 05:00,1.87,-21.41,-5.27,-18.99,-7.39,-19.59,-7.30,-12.29,-1.49,-3.13,3.80,1.61,6.01,5.16,4.61,9.33,3.36,10.43,3.45,9.00,3.58,6.75,3.68,4.59,3.71,0.86
2018-07-13 06:00,-2.26,-21.14,4.02,-20.17,-1.65,-14.20,3.06,-7.03,7.75,-0.17,9.94,2.33,9.95,6.29,7.84,8.59,4.97,6.63,4.84,5.24,2.22,3.86,1.58,2.12,1.66,1.10
2018-07-13 07:00,10.21,-21.83,7.34,-17.97,8.74,-13.41,17.27,-6.91,21.12,-7.26,20.47,-5.37,20.85,3.48,19.04,9.41,16.73,10.21,14.09,7.47,12.14,5.56,10.90,1.88,10.16,0.11
2018-07-13 08:00,1.65,-19.92,4.19,-15.34,5.67,-10.34,13.00,-6.88,16.70,-7.80,19.49,-3.04,22.66,3.69,20.90,9.11,18.60,8.77,17.11,5.63,15.82,4.33,15.34,3.46,13.53,2.53
2018-07-13 09:00,-25.14,-9.19,-9.29,-7.14,1.19,-7.05,4.67,-3.97,10.06,-4.61,12.55,-5.66,17.06,-1.45,19.38,1.71,20.46,3.37,19.06,3.91,17.77,3.33,15.80,5.47,14.40,8.91
2018-07-13 10:00,-19.72,-1.60,-18.69,-5.57,-4.18,-12.64,0.15,-12.13,3.66,-18.20,3.79,-12.85,5.96,-8.80,7.49,-6.17,7.94,-5.21,6.35,-6.92,3.27,-5.61,0.83,-2.16,-0.74,-0.32
2018-07-13 11:00,-21.10,0.30,-20.47,-7.33,-10.03,-15.46,-9.26,-13.79,-7.02,-16.89,-6.86,-17.78,-6.20,-11.04,-4.84,-10.33,-2.60,-8.34,-4.16,-6.19,-7.58,-4.05,-8.94,0.35,-9.30,2.33
2018-07-13 12:00,-17.42,4.16,-18.01,-14.84,-12.04,-17.50,-15.67,-15.73,-17.56,-13.15,-14.78,-13.39,-11.73,-15.33,-10.95,-14.79,-10.29,-11.27,-7.44,-8.89,-6.83,-6.64,-9.00,-0.92,-10.58,3.52
2018-07-13 13:00,-11.44,-1.82,-18.44,-10.80,-17.48,-21.03,-16.25,-23.49,-19.68,-19.89,-19.67,-17.39,-18.42,-17.04,-17.19,-18.77,-13.28,-18.27,-11.69,-15.11,-10.32,-13.36,-10.02,-10.78,-9.29,-7.14
2018-07-13 14:00,-18.82,-14.55,-24.91,-17.96,-21.80,-26.64,-23.63,-24.98,-26.66,-19.50,-25.74,-17.26,-26.12,-18.83,-24.15,-21.70,-19.49,-19.84,-17.88,-16.36,-16.13,-14.51,-14.82,-12.88,-13.48,-11.04
2018-07-13 15:00,3.61,-24.56,-9.40,-28.18,-8.28,-30.98,-11.47,-26.38,-11.51,-20.46,-13.15,-20.52,-17.07,-21.75,-15.23,-23.09,-16.27,-19.44,-15.26,-15.71,-12.09,-14.08,-10.47,-15.38,-11.26,-14.78
2018-07-13 16:00,-10.99,-8.46,-8.81,-20.42,-10.69,-22.21,-11.59,-17.26,-10.72,-10.88,-12.83,-9.30,-17.44,-6.66,-20.22,-2.78,-18.62,-1.80,-14.66,-0.77,-12.35,-1.56,-11.11,-1.52,-10.60,-0.75
2018-07-13 17:00,1.43,-25.29,3.94,-22.07,0.74,-22.88,2.27,-20.26,4.67,-15.93,2.74,-8.47,-2.03,-1.62,-3.46,1.19,-2.97,1.65,-2.46,0.23,-1.81,-0.21,-0.08,-2.62,2.15,-3.13
2018-07-13 18:00,9.90,-23.27,8.10,-23.17,5.32,-20.74,6.25,-19.64,5.11,-14.56,2.08,-8.35,0.15,-3.80,0.33,-0.43,1.61,2.02,1.83,1.25,0.40,-0.30,1.36,-2.21,1.54,-3.20
2018-07-13 19:00,8.85,-19.62,12.05,-20.26,9.76,-16.97,11.69,-15.37,11.22,-11.56,6.79,-7.00,5.21,-1.84,6.89,1.35,7.41,3.17,7.09,2.14,5.62,-0.37,4.07,-3.31,3.80,-5.99
2018-07-13 20:00,6.07,-11.37,6.14,-13.43,8.83,-7.56,10.07,-5.75,9.27,-2.96,5.99,0.88,7.00,6.79,7.02,8.88,6.17,7.49,4.06,6.16,2.17,4.78,2.07,2.57,1.76,2.58
2018-07-13 21:00,-0.77,-26.33,-3.61,-20.80,5.91,-18.80,14.43,-17.29,17.02,-12.91,20.50,-9.83,21.35,-7.71,18.69,-6.40,18.19,-2.48,17.68,-0.34,17.16,-0.70,18.01,-0.04,18.97,0.24
2018-07-13 22:00,-10.03,-21.60,-12.14,-16.80,-4.60,-18.80,2.39,-18.14,8.16,-14.31,10.06,-10.43,7.47,-6.81,5.72,-4.71,4.67,-4.69,4.15,-3.59,2.35,-3.49,3.42,-2.87,3.28,-0.93
2018-07-13 23:00,-11.59,-15.08,-20.90,-19.62,-16.24,-22.45,-9.77,-21.42,-7.70,-20.31,-2.03,-15.77,-1.65,-11.29,-6.32,-8.78,-7.38,-6.17,-8.53,-4.73,-10.21,-5.01,-9.93,-4.93,-9.20,-3.47
2018-07-14 00:00,-13.83,-12.71,-15.05,-16.07,-20.72,-17.70,-17.13,-23.33,-10.90,-22.58,-6.89,-21.32,-5.89,-19.37,-4.88,-14.92,-5.51,-12.71,-5.20,-9.81,-6.39,-6.72,-8.76,-6.46,-9.82,-6.04
2018-07-14 01:00,-20.83,-18.77,-22.82,-25.27,-26.75,-23.17,-29.23,-25.76,-24.99,-27.14,-21.55,-26.05,-17.33,-22.65,-12.34,-19.35,-10.60,-18.54,-10.49,-18.92,-8.02,-15.20,-13.34,-15.16,-11.77,-15.55
2018-07-14 02:00,-22.34,-21.49,-21.97,-21.70,-28.81,-22.51,-31.07,-17.54,-30.23,-17.93,-31.75,-20.96,-32.88,-23.57,-27.03,-20.75,-22.28,-19.18,-20.85,-19.81,-22.91,-16.97,-24.83,-16.07,-24.45,-15.23
2018-07-14 03:00,-9.16,-21.04,-16.64,-22.14,-22.65,-18.98,-20.92,-13.39,-23.09,-13.80,-22.12,-18.62,-20.89,-20.76,-22.33,-21.90,-21.32,-23.59,-18.18,-22.59,-16.31,-21.84,-14.28,-18.76,-12.47,-17.83
2018-07-14 04:00,-2.52,-21.32,-6.42,-18.59,-11.02,-12.73,-9.40,-7.48,-12.59,-3.61,-14.07,-7.88,-14.02,-9.53,-16.49,-9.62,-19.19,-9.98,-19.00,-10.65,-15.09,-10.88,-13.67,-10.37,-10.83,-11.22
2018-07-14 05:00,-0.78,-20.51,-4.69,-19.55,-5.25,-14.72,-3.37,-9.29,-1.05,-3.94,-4.56,-4.43,-5.75,-4.25,-9.24,-2.96,-9.97,-0.78,-9.11,0.20,-10.02,-3.50,-10.52,-5.41,-11.21,-8.42
2018-07-14 06:00,9.07,-22.57,2.49,-18.12,2.09,-11.99,5.46,-7.80,6.61,-3.10,2.31,-2.98,1.83,-2.39,1.15,1.79,0.77,3.13,-0.62,1.07,-1.81,-0.21,-3.11,-4.01,-3.50,-7.76
2018-07-14 07:00,8.33,-25.07,12.15,-23.88,11.86,-15.95,11.68,-7.37,16.27,-4.49,17.65,1.21,17.77,5.51,13.75,3.94,11.38,4.20,10.32,6.81,6.66,6.17,4.26,3.30,2.61,1.79
2018-07-14 08:00,10.44,-18.64,11.49,-19.38,14.47,-16.35,14.03,-8.67,15.00,-5.16,19.00,-0.59,16.49,4.52,12.85,7.43,12.00,9.68,12.15,11.70,9.30,11.09,6.28,10.02,5.34,6.42
2018-07-14 09:00,5.93,-23.58,12.86,-19.09,16.86,-17.43,17.47,-13.40,15.50,-9.08,18.59,-7.15,19.90,1.34,18.67,8.16,18.15,9.26,17.30,9.33,15.24,7.07,11.64,5.11,10.94,5.01
2018-07-14 10:00,-6.24,-9.07,-12.98,-14.23,0.00,-17.06,9.13,-19.13,11.10,-15.85,14.14,-10.51,17.41,-4.48,18.02,0.28,18.20,2.93,18.20,5.11,18.87,6.03,17.08,5.73,12.70,4.68
2018-07-14 11:00,-18.50,-15.29,-12.87,-13.16,-3.13,-20.66,2.01,-20.44,2.98,-17.66,4.73,-15.39,9.06,-12.38,7.86,-5.65,6.60,-4.14,4.99,-2.52,1.11,-2.07,-0.51,-1.50,-0.77,-1.68
2018-07-14 12:00,-11.94,-12.06,-13.25,-22.00,-10.40,-24.31,-7.48,-22.53,-6.97,-18.85,-3.82,-16.80,-1.27,-10.45,-1.71,-6.73,-3.13,-5.79,-4.88,-5.46,-5.74,-3.93,-6.11,-3.00,-5.99,-0.88
2018-07-14 13:00,-24.18,-10.37,-23.31,-24.99,-18.50,-21.12,-24.16,-15.87,-24.02,-16.36,-17.80,-18.11,-12.00,-17.28,-8.30,-13.51,-8.63,-7.99,-9.43,-6.66,-8.90,-5.26,-8.94,-4.02,-8.60,-1.22
2018-07-14 14:00,-20.98,-4.46,-24.03,-11.26,-25.08,-16.66,-25.36,-14.24,-24.07,-19.07,-17.37,-22.87,-12.47,-20.01,-11.09,-20.45,-8.38,-18.32,-10.48,-14.97,-10.69,-12.43,-10.17,-10.61,-8.83,-7.32
2018-07-14 15:00,-2.84,-2.79,-17.05,-8.74,-18.38,-10.99,-19.91,-11.12,-23.85,-14.43,-21.67,-19.11,-16.54,-22.85,-14.91,-20.92,-14.39,-16.19,-10.89,-16.44,-9.72,-15.06,-10.49,-13.83,-8.42,-11.99
2018-07-14 16:00,-6.60,-11.46,-11.23,-16.33,-16.65,-15.59,-17.31,-13.29,-22.07,-13.72,-25.14,-15.01,-22.29,-19.50,-19.66,-23.22,-16.08,-24.48,-15.01,-21.68,-11.62,-18.62,-9.53,-17.92,-8.06,-16.15
2018-07-14 17:00,0.14,-2.66,-6.02,-8.38,-7.73,-7.52,-5.56,-2.01,-8.39,2.07,-13.27,4.20,-15.29,2.17,-13.61,-1.51,-12.04,-4.08,-11.30,-5.22,-9.31,-7.45,-5.60,-6.60,-5.32,-6.10
2018-07-14 18:00,-1.54,-12.41,-9.19,-9.29,-7.78,-13.15,-7.12,-12.55,-7.85,-10.36,-8.28,-5.60,-9.46,-2.19,-11.99,-0.63,-13.83,-0.74,-10.77,-3.09,-10.08,-6.22,-9.66,-8.39,-7.50,-9.75
2018-07-14 19:00,5.60,-6.09,3.51,-2.43,3.22,-1.78,4.52,-0.16,3.34,-2.58,3.60,0.51,2.74,3.49,-1.35,6.89,-2.44,8.14,-1.34,5.03,-2.65,1.63,-3.06,-0.57,-1.72,-1.64
2018-07-14 20:00,17.86,-16.93,16.50,-12.54,13.75,-13.85,11.43,-12.64,9.87,-9.03,9.80,-6.97,12.00,-4.47,12.38,-1.44,10.57,2.30,8.27,3.83,5.77,-1.26,5.32,-4.40,4.52,-5.26
2018-07-14 21:00,-2.24,2.37,13.04,-17.17,14.96,-17.35,18.15,-17.58,19.66,-14.13,21.05,-8.11,22.93,-4.87,24.56,-0.76,26.83,0.41,27.03,3.69,23.04,5.26,20.44,2.74,19.60,0.21
2018-07-14 22:00,0.29,-12.61,0.20,-10.14,1.89,-8.40,6.22,-8.62,6.40,-3.47,8.10,0.04,11.48,1.32,15.20,3.94,17.26,6.93,17.19,10.44,15.69,10.95,12.88,8.79,8.73,9.47
2018-07-14 23:00,-6.15,-27.88,-9.70,-15.16,-2.43,-11.83,-1.04,-17.78,2.13,-16.14,1.71,-11.06,4.23,-8.57,7.64,-6.34,8.72,-1.76,5.87,0.23,3.96,-0.74,1.90,-2.26,0.84,-1.84
2018-07-15 00:00,-7.93,-22.77,-15.85,-14.74,-11.30,-15.00,-12.81,-20.63,-9.78,-16.33,-8.27,-9.97,-7.41,-6.81,-4.89,-4.00,-3.23,1.47,-5.50,3.21,-7.63,3.74,-9.69,5.13,-9.61,4.11
2018-07-15 01:00,-25.60,-17.74,-15.09,-24.30,-22.19,-18.74,-25.56,-19.71,-28.87,-22.32,-21.34,-19.54,-16.65,-14.14,-18.04,-13.29,-15.28,-12.39,-9.91,-10.44,-7.75,-8.15,-8.04,-4.60,-8.77,-3.87
2018-07-15 02:00,-24.00,-21.14,-20.69,-22.89,-27.33,-19.70,-34.82,-27.67,-35.92,-31.11,-34.04,-25.68,-30.03,-23.70,-25.98,-20.77,-23.76,-16.90,-20.30,-17.37,-14.72,-16.50,-12.10,-13.67,-10.99,-12.10
2018-07-15 03:00,-20.29,-11.96,-23.16,-15.38,-25.61,-18.06,-29.98,-17.34,-31.48,-16.83,-28.96,-20.16,-23.03,-19.09,-20.41,-16.98,-19.15,-15.58,-18.63,-11.58,-17.37,-11.64,-15.03,-12.53,-11.29,-10.31
2018-07-15 04:00,-18.13,-19.87,-19.49,-15.47,-23.16,-13.92,-24.89,-15.88,-23.89,-14.65,-25.75,-16.85,-20.83,-19.50,-16.12,-19.60,-14.24,-16.36,-15.21,-13.00,-14.63,-14.29,-13.57,-14.71,-10.58,-14.27
2018-07-15 05:00,-9.88,-12.72,-8.62,-17.45,-7.78,-11.70,-9.95,-11.38,-11.29,-11.04,-9.04,-8.00,-11.23,-7.28,-12.35,-8.43,-9.59,-8.99,-6.21,-9.90,-2.17,-10.92,-1.69,-13.70,-0.77,-11.46
2018-07-15 06:00,-3.92,-21.51,-0.95,-17.02,-2.49,-13.09,-3.85,-10.88,-5.69,-10.99,-3.43,-9.10,-5.10,-7.60,-5.84,-7.92,-3.11,-7.65,-3.03,-7.94,-0.13,-10.44,-0.04,-13.64,2.50,-14.89
2018-07-15 07:00,-1.93,-17.20,-1.81,-15.08,-0.28,-13.91,1.73,-11.47,1.24,-7.97,0.83,-3.61,2.68,-1.73,1.17,-0.08,2.92,1.05,4.27,-0.75,3.42,-2.87,4.10,-6.31,4.07,-7.67
2018-07-15 08:00,7.96,-17.59,9.93,-15.77,10.78,-15.11,9.48,-12.37,10.83,-9.48,9.81,-5.20,9.01,-3.86,9.91,-3.71,7.87,-0.97,6.76,0.38,7.94,-3.03,6.97,-4.35,5.14,-6.33
2018-07-15 09:00,8.98,-10.64,4.09,-9.54,4.02,-9.67,4.37,-5.82,6.65,-3.61,7.99,0.42,8.78,0.96,10.39,5.48,10.87,8.53,10.12,8.62,8.11,7.63,6.77,5.06,5.50,5.12
2018-07-15 10:00,11.21,-13.33,5.87,-7.78,5.49,-7.16,6.36,-2.23,8.90,0.16,11.27,-1.56,13.78,-0.52,14.87,4.37,13.59,8.47,11.10,8.07,8.79,6.37,8.00,5.83,4.84,5.24
2018-07-15 11:00,-9.25,-12.01,-3.59,-12.16,0.57,-8.89,0.67,-8.86,5.17,-5.70,9.00,-2.00,10.54,-3.01,15.42,-4.42,16.20,-1.70,13.43,1.77,10.74,4.64,9.95,5.56,8.37,4.90
2018-07-15 12:00,-24.01,-4.08,-23.79,-5.57,-19.93,-11.02,-17.64,-15.77,-13.42,-14.15,-7.45,-10.67,-1.63,-7.75,4.37,-5.82,6.72,-1.30,5.37,-0.23,3.57,0.61,1.74,3.00,-1.06,3.34
2018-07-15 13:00,-7.13,-13.59,-16.75,-23.22,-20.85,-25.23,-19.40,-21.58,-12.44,-19.38,-11.03,-19.60,-6.71,-18.67,-5.26,-12.85,-6.67,-9.40,-9.24,-6.60,-10.23,-6.05,-12.47,-5.86,-13.80,-4.48
2018-07-15 14:00,-16.26,-2.06,-16.37,-2.41,-21.58,-9.62,-25.44,-13.22,-23.90,-13.51,-16.91,-13.59,-13.91,-14.60,-12.06,-14.90,-8.60,-12.45,-7.74,-8.56,-8.62,-6.94,-9.18,-6.07,-10.53,-4.27
2018-07-15 15:00,-8.56,-15.15,-17.99,-13.79,-24.19,-15.05,-24.89,-15.15,-23.24,-18.73,-21.13,-21.35,-20.75,-22.70,-19.10,-20.46,-15.59,-18.20,-15.69,-16.04,-15.29,-14.16,-14.03,-12.76,-13.33,-9.75
2018-07-15 16:00,-8.92,-6.62,-14.82,-13.61,-18.82,-10.91,-23.82,-11.62,-25.51,-14.80,-23.48,-19.32,-20.39,-21.76,-20.35,-18.63,-17.95,-15.03,-14.95,-12.82,-14.43,-11.73,-14.12,-10.60,-11.92,-7.79
2018-07-15 17:00,-5.81,-13.11,-16.92,-13.18,-18.64,-9.72,-19.19,-9.98,-24.54,-9.12,-31.53,-9.77,-33.51,-10.86,-29.41,-9.16,-24.48,-8.58,-21.36,-8.94,-18.71,-9.11,-17.83,-8.55,-16.96,-8.71
2018-07-15 18:00,-6.27,-11.89,-9.11,-13.22,-7.66,-8.13,-5.28,-8.07,-8.25,-4.97,-14.81,-1.33,-19.33,-1.17,-16.94,-1.53,-13.83,-1.47,-11.34,-1.80,-8.95,-2.15,-7.51,-3.19,-7.69,-5.12
2018-07-15 19:00,-2.19,-11.24,-3.44,-17.74,1.06,-19.67,2.83,-16.04,-0.56,-13.27,-3.13,-11.20,-6.96,-5.84,-7.24,-3.43,-4.38,-3.96,-2.91,-5.10,-2.16,-6.97,-1.12,-9.16,-1.06,-10.81
2018-07-15 20:00,5.75,-12.81,-0.18,-13.16,0.15,-9.94,3.62,-13.00,7.28,-11.96,5.75,-8.44,1.60,-3.39,-0.00,1.46,-0.20,5.04,0.83,4.71,1.41,2.69,1.21,0.14,0.62,-2.53
2018-07-15 21:00,8.56,-16.79,7.85,-9.61,7.42,-14.62,7.36,-15.16,9.42,-11.45,8.21,-6.49,7.10,-1.92,6.89,3.54,7.54,5.28,8.46,3.88,6.91,1.67,6.43,-1.38,5.31,-3.26
2018-07-15 22:00,3.61,-14.78,4.98,-9.39,7.20,-6.98,7.94,-12.08,9.02,-11.15,11.92,-7.09,12.08,-1.11,13.16,1.28,14.93,4.18,15.41,4.31,13.39,3.01,11.55,1.44,9.16,-1.12
2018-07-15 23:00,-8.19,-22.22,-7.55,-18.29,-2.52,-10.81,0.89,-11.08,0.96,-13.87,4.63,-11.78,8.54,-6.91,12.12,-3.08,16.28,-0.53,15.60,0.00,12.22,0.18,9.55,-0.28,5.81,-1.77
2018-07-16 00:00,-11.97,-3.95,-15.58,-10.61,-7.62,-6.45,-3.75,-10.13,-5.59,-13.88,-1.40,-12.89,2.56,-10.40,5.57,-6.73,10.43,-1.90,10.61,-1.43,9.14,-1.02,7.36,-1.01,2.58,-1.03
2018-07-16 01:00,-24.76,-15.94,-17.13,-11.36,-21.19,-16.79,-22.11,-16.12,-15.56,-16.11,-10.41,-14.12,-4.80,-11.57,1.13,-7.58,1.52,-7.47,-1.75,-4.77,-7.36,-1.90,-8.20,-2.97,-8.87,-1.71
2018-07-16 02:00,-25.13,-8.14,-25.18,-14.50,-28.93,-14.12,-29.48,-13.65,-23.10,-18.48,-16.70,-18.31,-14.66,-14.92,-12.94,-11.83,-9.17,-7.93,-8.43,-3.25,-9.23,-0.46,-12.71,0.41,-15.20,-1.03
2018-07-16 03:00,-22.12,-7.38,-26.31,-8.38,-30.79,-10.91,-30.73,-12.56,-29.08,-13.23,-29.85,-16.36,-24.38,-17.29,-20.96,-17.24,-19.09,-12.86,-20.15,-12.44,-21.46,-12.60,-18.49,-9.88,-15.73,-8.98
2018-07-16 04:00,-12.94,-2.77,-17.77,-15.29,-21.79,-20.50,-21.93,-20.02,-22.01,-21.92,-20.56,-21.19,-21.54,-24.28,-19.25,-27.57,-14.51,-26.32,-12.48,-23.97,-12.55,-20.45,-11.53,-18.91,-11.48,-18.38
2018-07-16 05:00,-7.53,-8.92,-19.61,-16.13,-19.60,-16.54,-20.39,-13.44,-20.69,-12.38,-19.32,-12.09,-21.06,-12.18,-24.71,-15.41,-25.05,-18.21,-22.37,-19.94,-19.13,-18.18,-15.62,-15.19,-12.71,-13.73